星链-3643 (STARLINK-3643 )

导读

STARLINK-3643是美国SpaceX星链计划的卫星,于2022年3月9日发射。作为低轨互联网星座一员,它旨在为全球提供高速卫星互联网服务,填补地面网络覆盖盲区。星链卫星运行在近地轨道,该卫星加入后进一步扩充了星链星座规模,推进全球全域互联目标的实现。

基本信息
目录编号:
51992
目录名称:
STARLINK-3643
国际标识:
2022-025AN
轨道中心:
EARTH
卫星名称:
星链-3643
卫星全名:
星链-3643 (STARLINK-3643 )
卫星状态:
在轨 (已飞行1561 天)
发射日期:
2022-03-09 UTC
国别 :
美国 (US)
星等 :
--
轨道信息
数据来源 国际轨道数据
星历时间: 2026-06-17T19:49:10+0800
5小时前
查看轨道信息
半长轴: 6917.933km
偏心率: 0.0001302
轨道倾角: 53.161°
近地点辐角 90.685°
升交点赤经 290.988°
平近点角 269.429°
近地点: 538.895km
远地点: 540.697km
周期: 95.439分钟
每日圈数: 15.088228
详细信息
固有亮度:
5
最大亮度:
2.5
卫星平台:
Starlink v1.5
覆盖范围:
全球
运营商:
太空探索技术公司
运营商所在国:
美国
制造商(研发单位):
太空探索技术公司
制造商所在国:
美国
使用方式:
暂无
卫星简介
星链(Starlink)计划是由太空探索技术公司(SpaceX)提出的一个巨型低轨卫星互联网星座项目,计划在2019年至2024年间在太空搭建由约1.2万颗卫星组成的“星链”网络,其中1584颗将部署在地球上空550千米处的近地轨道,并从2020年开始工作。该卫星仍在工作。
2D轨道图
3D轨道图
轨道高度分析图
轨道倾角分析图
轨道综合分析图
查看轨道综合分析图